カタログに戻る

AE3VA

運用中科学SSO
NORAD 64563·PAYLOAD·🇯🇵 Japan

打ち上げ Jun 23, 2025 から Vandenberg Space Force Base

Loading…

次のパス (今後24時間)

TLE

最新Source: Space-Track

元期: Sep 14, 2026, 13:19 UTC

1 64563U 25135AM  26257.55512723  .00004256  00000-0  36492-3 0  9996
2 64563  97.7766  11.9812 0002412  12.4816 347.6465 14.98057104 67312

AllMySatでAE3VAをリアルタイム追跡

Download on the App Store